www.pogodaiklimat.ru

Погода и климат >> Архив погоды >> Бразилия >> Парана >> Дойс-Визиньюс


ПОГОДА в Дойс-Визиньюсе

  • Прогноз погоды в Дойс-Визиньюсе
  • Монитор погоды в Дойс-Визиньюсе

АРХИВ ПОГОДЫ в Дойс-Визиньюсе

Время (UTC), дата Ветер
(напр.,м/с)
 
Видим.   Явления Облачность Т
(С)
Тd
(С)
f
(%)
Тe
(С)
Тes
(С)
Комфортность P
(гПа)
Po
(гПа)
Тmin
(С)
Tmax
(С)
R
(мм)
R24
(мм)
S
(см)
01 11.07 штиль 0 н/о н/о +16.7 +9.9 64 +17 +17 1018.0 954.5
02 11.07 штиль 0 н/о н/о +16.4 +10.0 66 +16 +16 1018.1 954.6
03 11.07 штиль 0 н/о н/о +14.2 +9.8 75 +14 +14 1018.4 954.4
04 11.07 штиль 0 н/о н/о +14.5 +9.7 73 +14 +14 1018.7 954.7
05 11.07 штиль 0 н/о н/о +14.1 +9.9 76 +14 +14 1018.8 954.7
06 11.07 штиль 0 н/о н/о +12.3 +9.4 82 +12 +12 1018.9 954.4
07 11.07 штиль 0 н/о н/о +12.2 +9.6 84 +12 +12 1018.8 954.3
08 11.07 штиль 0 н/о н/о +10.6 +9.0 90 +10 +10 1019.1 954.2
09 11.07 Ю 2
{3}
н/о н/о +10.3 +9.1 92 +9 +9 1019.3 954.4
10 11.07 штиль 0
{3}
н/о н/о +10.2 +8.8 91 +9 +9 1019.6 954.6
11 11.07 штиль 0 н/о н/о +11.4 +9.4 88 +11 +11 1019.7 955.0
12 11.07 Ю 2
{3}
н/о н/о +13.1 +10.0 81 +12 +12 1020.2 955.8
13 11.07 Ю 2
{3}
н/о н/о +14.8 +10.6 76 +14 +14 1020.2 956.2
14 11.07 штиль 0
{3}
н/о н/о +17.0 +10.7 66 +17 +17 1019.4 955.9
15 11.07 штиль 0
{2}
н/о н/о +19.8 +12.0 61 +21 +21 комфорт 1017.8 955.0
16 11.07 штиль 0 н/о н/о +21.9 +12.7 56 +24 +24 комфорт 1015.9 953.6
17 11.07 штиль 0 н/о н/о +25.1 +13.3 48 +27 +27 жарко 1014.3 952.8
18 11.07 штиль 0 н/о н/о +25.7 +10.5 38 +27 +27 жарко 1013.7 952.3
19 11.07 штиль 0
{2}
н/о н/о +25.6 +10.4 38 +26 +26 жарко 1013.4 952.0
20 11.07 штиль 0 н/о н/о +25.5 +10.6 39 +26 +26 жарко 1013.3 951.9
21 11.07 штиль 0 н/о н/о +23.1 +11.2 47 +25 +25 комфорт 1013.7 951.8
22 11.07 штиль 0 н/о н/о +20.9 +11.7 56 +23 +23 комфорт 1014.5 952.1
23 11.07 штиль 0 н/о н/о +19.5 +11.1 58 +21 +21 комфорт 1014.9 952.2
00 12.07 штиль 0 н/о н/о +19.7 +10.9 57 +21 +21 комфорт 1015.0 952.3
01 12.07 штиль 0 н/о н/о +18.6 +10.8 60 +19 +19 1015.7 952.8
02 12.07 штиль 0 н/о н/о +18.3 +10.7 61 +19 +19 1016.1 953.1
03 12.07 штиль 0 н/о н/о +17.3 +10.8 66 +17 +17 1016.2 953.0
04 12.07 штиль 0 н/о н/о +16.2 +10.5 69 +16 +16 1016.6 953.1
05 12.07 штиль 0 н/о н/о +14.2 +10.0 76 +14 +14 1017.2 953.2
06 12.07 штиль 0 н/о н/о +14.0 +10.3 78 +14 +14 1017.1 953.1
07 12.07 штиль 0 н/о н/о +13.1 +10.3 83 +13 +13 1017.1 952.9
08 12.07 штиль 0 н/о н/о +12.6 +10.2 85 +12 +12 1017.6 953.3
09 12.07 Ю 2
{2}
н/о н/о +12.6 +10.3 86 +12 +12 1018.0 953.6
10 12.07 Ю 2
{3}
н/о н/о +11.8 +10.1 89 +11 +11 1018.7 954.1
11 12.07 Ю 1
{3}
н/о н/о +12.1 +10.1 88 +13 +13 1019.1 954.6
12 12.07 штиль 0
{2}
н/о н/о +14.1 +10.9 81 +14 +14 1019.3 955.2
13 12.07 штиль 0 н/о н/о +17.0 +11.5 70 +17 +17 1019.1 955.6
14 12.07 штиль 0 н/о н/о +19.1 +11.9 63 +20 +20 1018.2 955.2
15 12.07 штиль 0 н/о н/о +21.8 +12.6 56 +24 +24 комфорт 1016.6 954.3
16 12.07 В 1
{3}
н/о н/о +24.0 +11.1 44 +25 +25 комфорт 1015.2 953.4
17 12.07 СВ 3
{4}
н/о н/о +25.6 +9.3 36 +26 +26 жарко 1013.9 952.5
18 12.07 СВ 2
{4}
н/о н/о +25.8 +10.5 38 +27 +27 жарко 1013.4 952.1
19 12.07 СВ 2
{4}
н/о н/о +25.2 +10.2 39 +26 +26 жарко 1013.1 951.7
20 12.07 штиль 0
{4}
н/о н/о +24.3 +10.7 42 +25 +25 комфорт 1013.4 951.8
21 12.07 штиль 0 н/о н/о +22.9 +10.1 44 +25 +25 комфорт 1013.8 951.9
22 12.07 штиль 0 н/о н/о +21.2 +10.7 51 +23 +23 комфорт 1014.6 952.3
23 12.07 штиль 0 н/о н/о +20.7 +10.6 52 +22 +22 комфорт 1015.2 952.7
00 13.07 штиль 0 н/о н/о +20.8 +10.1 50 +22 +22 комфорт 1015.4 952.9
01 13.07 штиль 0 н/о н/о +19.2 +10.4 57 +20 +20 1016.2 953.4
02 13.07 штиль 0 н/о н/о +18.8 +10.4 58 +19 +19 1016.5 953.6
03 13.07 штиль 0 н/о н/о +18.0 +10.7 62 +18 +18 1016.9 953.8
04 13.07 штиль 0 н/о н/о +16.6 +10.9 69 +17 +17 1017.0 953.6
05 13.07 штиль 0 н/о н/о +16.1 +10.7 70 +16 +16 1016.7 953.2
06 13.07 штиль 0 н/о н/о +15.7 +10.7 72 +16 +16 1016.8 953.2
07 13.07 штиль 0 н/о н/о +15.3 +10.8 75 +15 +15 1016.5 952.8
08 13.07 штиль 0 н/о н/о +13.7 +10.5 81 +13 +13 1016.4 952.4
09 13.07 штиль 0
{2}
н/о н/о +13.3 +10.6 84 +13 +13 1016.7 952.6
10 13.07 штиль 0 н/о н/о +12.9 +10.4 85 +12 +12 1017.1 952.9
11 13.07 штиль 0 н/о н/о +13.9 +10.8 82 +14 +14 1017.7 953.6
12 13.07 штиль 0 н/о н/о +15.3 +11.8 80 +15 +15 1018.0 954.2
14 13.07 штиль 0 н/о н/о +20.4 +13.7 65 +22 +22 комфорт 1017.4 954.7
15 13.07 штиль 0 н/о н/о +22.2 +12.6 54 +25 +25 комфорт 1016.3 954.1
17 13.07 штиль 0
{1}
н/о н/о +25.1 +12.7 46 +27 +27 жарко 1013.9 952.4
18 13.07 штиль 0
{2}
н/о н/о +24.8 +13.0 48 +27 +27 жарко 1013.1 951.6
19 13.07 штиль 0 н/о н/о +24.4 +13.7 51 +27 +27 жарко 1013.0 951.4
20 13.07 штиль 0 н/о н/о +23.7 +14.8 57 +26 +26 жарко 1012.9 951.2
21 13.07 штиль 0 н/о н/о +22.8 +13.5 56 +26 +26 жарко 1013.0 951.1
22 13.07 штиль 0 н/о н/о +21.3 +13.5 61 +24 +24 комфорт 1013.6 951.4
23 13.07 штиль 0 н/о н/о +21.2 +12.4 57 +23 +23 комфорт 1013.9 951.6
00 14.07 штиль 0 н/о н/о +20.7 +12.0 57 +22 +22 комфорт 1014.1 951.7
01 14.07 штиль 0 н/о н/о +19.9 +11.9 60 +21 +21 комфорт 1014.6 952.0
02 14.07 штиль 0 н/о н/о +19.5 +11.9 61 +21 +21 комфорт 1014.9 952.2
03 14.07 штиль 0 н/о н/о +19.5 +12.0 62 +21 +21 комфорт 1015.1 952.4
04 14.07 штиль 0
{1}
н/о н/о +19.4 +11.7 61 +20 +20 1015.0 952.3
05 14.07 штиль 0 н/о н/о +18.9 +11.9 64 +20 +20 1014.9 952.1
06 14.07 штиль 0 н/о н/о +18.3 +12.1 67 +19 +19 1014.7 951.8
07 14.07 штиль 0 н/о н/о +18.6 +12.2 66 +19 +19 1014.1 951.3
08 14.07 штиль 0 н/о н/о +17.3 +12.2 72 +17 +17 1013.6 950.5
09 14.07 штиль 0 н/о н/о +16.3 +12.0 76 +16 +16 1014.4 951.1
10 14.07 штиль 0 н/о н/о +16.3 +12.4 78 +16 +16 1014.8 951.4
11 14.07 штиль 0 н/о н/о +16.7 +12.5 76 +17 +17 1014.8 951.5
12 14.07 штиль 0 н/о н/о +18.2 +13.7 75 +18 +18 1015.2 952.2
13 14.07 штиль 0 н/о н/о +19.9 +14.0 69 +22 +22 комфорт 1015.0 952.4
14 14.07 штиль 0 н/о н/о +21.7 +13.8 61 +25 +25 комфорт 1014.9 952.7
15 14.07 штиль 0 н/о н/о +23.7 +12.9 51 +26 +26 жарко 1014.0 952.2
16 14.07 штиль 0
{3}
н/о н/о +22.9 +12.9 53 +26 +26 жарко 1013.8 951.9
17 14.07 З 2
{4}
н/о н/о +23.2 +13.3 54 +26 +26 жарко 1012.7 950.9
18 14.07 З 2
{4}
н/о н/о +22.9 +13.8 56 +26 +26 жарко 1012.2 950.4
19 14.07 штиль 0
{4}
н/о н/о +21.5 +13.0 58 +24 +24 комфорт 1012.7 950.6
20 14.07 штиль 0
{1}
н/о н/о +20.2 +14.9 72 +22 +22 комфорт 1013.0 950.6
21 14.07 ЮЗ 1
{3}
н/о н/о +19.8 +14.8 73 +23 +23 комфорт 1013.5 951.0
22 14.07 штиль 0
{3}
н/о н/о +19.4 +14.7 74 +21 +21 комфорт 1014.4 951.7
23 14.07 штиль 0 н/о н/о +18.7 +14.9 79 +20 +20 1015.4 952.5
00 15.07 штиль 0
{3}
н/о н/о +17.1 +15.7 91 +17 +17 1016.0 952.7
01 15.07 штиль 0
{2}
н/о н/о +16.8 +16.1 96 +17 +17 1016.1 952.8 0.6
02 15.07 штиль 0 н/о н/о +16.2 +16.2 100 +16 +16 1016.2 952.7 0.2
03 15.07 штиль 0
{2}
н/о н/о +16.2 +16 +16 1016.9 953.4 0.2
04 15.07 штиль 0
{2}
н/о н/о +15.8 +16 +16 1015.7 952.2
05 15.07 штиль 0 н/о н/о +15.9 +16 +16 1016.2 952.7 0.2
06 15.07 штиль 0 н/о н/о +15.7 +16 +16 1015.0 951.5 0.4
07 15.07 штиль 0
{2}
н/о н/о +15.5 +16 +16 1014.1 950.6 0.2
08 15.07 штиль 0 н/о н/о +15.6 +16 +16 1014.5 951.0 0.2
09 15.07 штиль 0 н/о н/о +15.6 +16 +16 1014.5 951.0
10 15.07 штиль 0 н/о н/о +15.5 +16 +16 1015.3 951.7 0.2
11 15.07 штиль 0 н/о н/о +15.5 +16 +16 1015.8 952.2
12 15.07 штиль 0 н/о н/о +15.9 +16 +16 1016.9 953.3 0.2
13 15.07 штиль 0 н/о н/о +16.6 +17 +17 1017.8 954.3
14 15.07 штиль 0 н/о н/о +17.2 +17.2 100 +17 +17 1017.9 954.5 0.2
15 15.07 штиль 0 н/о н/о +17.4 +17.4 100 +17 +17 1017.4 954.1
16 15.07 штиль 0 н/о н/о +17.1 +17 +17 1016.8 953.5 0.2
17 15.07 штиль 0
{2}
н/о н/о +17.1 +17.1 100 +17 +17 1016.1 952.8 0.2
18 15.07 штиль 0
{3}
н/о н/о +17.2 +17.2 100 +17 +17 1015.8 952.6 0.2
20 15.07 штиль 0 н/о н/о +17.5 +17.5 100 +17 +17 1015.6 952.4 0.2
21 15.07 штиль 0 н/о н/о +16.7 +16.7 100 +17 +17 1016.3 952.9 0.2
22 15.07 штиль 0 н/о н/о +16.6 +17 +17 1017.2 953.8
23 15.07 штиль 0 н/о н/о +16.4 +17 +17 1017.8 954.3 0.2
00 16.07 ЮЗ 1
{4}
н/о н/о +14.9 +13.2 90 +16 +16 1018.8 954.9 0.2
01 16.07 штиль 0
{3}
н/о н/о +13.2 +11.5 89 +13 +13 1019.4 955.1
02 16.07 ЮЗ 1
{3}
н/о н/о +12.7 +11.3 91 +13 +13 1020.2 955.7
03 16.07 ЮЗ 1
{3}
н/о н/о +11.4 +10.1 92 +12 +12 1020.5 955.7
04 16.07 штиль 0
{3}
н/о н/о +10.1 +9.1 94 +9 +9 1020.8 955.7 0.2
05 16.07 штиль 0 н/о н/о +10.3 +9.0 92 +10 +10 1020.9 955.9
06 16.07 штиль 0 н/о н/о +9.2 +7.0 86 +8 +8 1020.9 955.6
07 16.07 штиль 0 н/о н/о +9.0 +6.9 87 +8 +8 1020.9 955.6
08 16.07 штиль 0 н/о н/о +9.1 +5.7 79 +8 +8 1021.0 955.7
09 16.07 штиль 0 н/о н/о +7.6 +4.4 80 +7 +7 1021.7 956.0
10 16.07 штиль 0 н/о н/о +7.1 +4.5 84 +6 +6 1022.4 956.5
11 16.07 штиль 0 н/о н/о +6.6 +5.1 90 +6 +6 1023.4 957.4
12 16.07 штиль 0 н/о н/о +6.6 +7 +7 1024.2 958.1
13 16.07 штиль 0
{2}
н/о н/о +9.1 +8.3 95 +8 +8 1024.4 958.9
14 16.07 Ю 1
{3}
н/о н/о +11.1 +7.0 76 +12 +12 1024.1 959.0
15 16.07 Ю 2
{3}
н/о н/о +13.1 +6.8 66 +12 +12 1023.5 958.9
16 16.07 ЮЗ 3
{4}
н/о н/о +14.8 +6.4 57 +14 +14 1022.2 958.1
17 16.07 ЮЗ 2
{4}
н/о н/о +15.8 +5.3 50 +16 +16 1021.3 957.4
18 16.07 ЮЗ 2
{4}
н/о н/о +16.1 +3.5 43 +16 +16 1020.8 957.0
19 16.07 ЮЗ 1
{4}
н/о н/о +16.2 +3.3 42 +18 +18 1020.6 956.9
20 16.07 ЮЗ 1
{4}
н/о н/о +14.8 +4.8 51 +15 +15 1021.1 957.0
21 16.07 штиль 0
{2}
н/о н/о +14.2 +4.1 51 +14 +14 1021.3 957.1
22 16.07 штиль 0 н/о н/о +11.2 +4.3 62 +11 +11 1022.1 957.2 0.2
23 16.07 Ю 2
{3}
н/о н/о +9.9 +4.4 69 +9 +9 1023.0 957.7
00 17.07 ЮЗ 2
{3}
н/о н/о +9.3 +4.2 70 +8 +8 1023.5 958.1
01 17.07 Ю 1
{3}
н/о н/о +9.2 +4.0 70 +10 +10 1023.9 958.4
02 17.07 Ю 2
{4}
н/о н/о +8.3 +3.9 74 +7 +7 1024.3 958.6
03 17.07 Ю 3
{4}
н/о н/о +8.2 +4.2 76 +6 +6 1024.8 959.0
04 17.07 Ю 2
{4}
н/о н/о +6.9 +4.2 83 +5 +5 1025.2 959.1
05 17.07 Ю 1
{3}
н/о н/о +7.2 +4.1 81 +6 +6 1025.1 959.1
06 17.07 Ю 2
{3}
н/о н/о +6.9 +3.9 81 +5 +5 1025.2 959.1
07 17.07 Ю 2
{3}
н/о н/о +7.3 +3.5 77 +6 +6 1025.2 959.2
08 17.07 Ю 2
{4}
н/о н/о +8.3 +3.4 71 +7 +7 1024.8 959.1
09 17.07 Ю 1
{4}
н/о н/о +7.6 +3.1 73 +7 +7 1025.1 959.2
10 17.07 штиль 0
{3}
н/о н/о +5.9 +2.7 80 +5 +5 1026.1 959.7
11 17.07 штиль 0 н/о н/о +6.7 +3.4 79 +6 +6 1026.9 960.7
12 17.07 Ю 1
{3}
н/о н/о +9.8 +5.1 73 +9 +9 1027.2 961.6
13 17.07 Ю 2
{4}
н/о н/о +11.1 +5.5 68 +10 +10 1027.6 962.3
14 17.07 Ю 3
{5}
н/о н/о +13.3 +5.2 58 +12 +12 1026.9 962.1
15 17.07 ЮВ 2
{5}
н/о н/о +15.1 +6.2 55 +15 +15 1026.0 961.7
18 17.07 штиль 0
{3}
н/о н/о +18.3 +5.5 43 +18 +18 1022.9 959.5
22 17.07 штиль 0 н/о н/о +14.2 +5.0 54 +14 +14 1022.7 958.4
23 17.07 штиль 0 н/о н/о +12.6 +5.7 63 +12 +12 1023.3 958.6

 

Местоположение метеостанции Дойс-Визиньюс (Парана, Бразилия): широта -25.70 долгота -53.10 высота над уровнем моря 522 м.

В архиве по умолчанию представлена погода в Дойс-Визиньюсе за последнюю неделю. Архивные данные за месяц целиком и за предыдущие месяцы, начиная с января 2011 года, Вы можете получить, выбрав интересующий диапазон дат из раскрывающегося списка и нажав кнопку "Ввод!".


*Определитесь, кто Вы:
робот инопланетянин человек

Внимание! Время в таблицах - всемирное. Для получения местного времени необходимо прибавить поправку, которая равна -3 ч.

Смотрите также архив погоды в соседних городах и на ближайших метеорологических станциях:

Погода в Планарту (Парана, Бразилия) (65 км)
Погода в Ново-Оризонти (Санта-Катарина, Бразилия) (82 км)
Погода в Дионисио Серкейра (Парана, Бразилия) (83 км)
Погода в Клевеландии (Парана, Бразилия) (110 км)
Погода в Сан-Мигель-ду-Осте (Санта-Катарина, Бразилия) (127 км)
Погода в Кампина-да-Лагоа (Парана, Бразилия) (129 км)
Погода в Игуасу (Аргентина) (136 км)
Погода в Фос-ду-Игуасу (Парана, Бразилия) (139 км)
Погода в Фос-ду-Игуасу (Парана, Бразилия) (150 км)
Погода в Шаншере (Санта-Катарина, Бразилия) (154 км)

Пояснения к столбцам:

Ветер - указаны скорость ветра в м/с - средняя за 10 мин, порывы в срок и между сроками (в фигурных скобках) и направление, откуда дует ветер: С - северный, СВ - северо-восточный, В - восточный, ЮВ - юго-восточный, Ю - южный, ЮЗ - юго-западный, З - западный, СЗ - северо-западный.
Видимость - горизонтальная дальность видимости в метрах или километрах. При видимости от 1 до 10 км при отсутствии осадков обычно наблюдается дымка, при ухудшении видимости до 1 км и менее - туман. В сухую погоду видимость может ухудшаться дымом, пылью или мглою.
Явления - указаны атмосферные явления, наблюдавшиеся в срок или в последний час перед сроком; фигурными скобками обозначены явления, наблюдавшиеся между сроками (за 1-3 часа до срока); квадратными скобками обозначены град или гололедные отложения с указанием их диаметра в мм.
Облачность - указаны через наклонную черту общая и нижняя облачность в баллах и высота нижней границы облаков в метрах; квадратными скобками обозначены формы облаков: Ci - перистые, Cs - перисто-слоистые, Cc - перисто-кучевые, Ac - высококучевые, As - высокослоистые, Sc - слоисто-кучевые, Ns - слоисто-дождевые, Cu - кучевые, Cb - кучево-дождевые. Подробнее классификацию облаков см. в Атласе облаков (PDF).
T - Температура воздуха - температура, измеренная на высоте 2 м над землей.
Td - Температура точки росы - температура, при понижении до которой содержащийся в воздухе водяной пар достигнет насыщения.
f - Относительная влажность воздуха - влажноcть воздуха, измеренная на высоте 2 м над землей.
Te - Эффективная температура - температура, которую ощущает одетый по сезону человек в тени. Характеристика душности погоды. При расчете учитывается влияние влажности воздуха и скорости ветра на теплоощущения человека.
Tes - Эффективная температура на солнце - температура, которую ощущает человек, с поправкой на солнечный нагрев. Характеристика знойности погоды. Зависит от высоты солнца над горизонтом, облачности и скорости ветра. Ночью, в пасмурную погоду, а также при ветре 12 м/с и более поправка равна нулю.
P - Атмосферное давление - приведенное к уровню моря атмосферное давление.
Po - Атмосферное давление - измеренное на уровне метеостанции атмосферное давление.
Tmin - Минимальная температура - минимум температуры воздуха на высоте 2 м над землей.
Tmax - Максимальная температура - максимум температуры воздуха на высоте 2 м над землей.
R - Количество осадков - Количество выпавших осадков за период времени, мм. При наведении курсора мыши на число - период времени, за который выпало указанное количество осадков.
R24 - Количество осадков - Количество выпавших осадков за 24 часа, мм.
S - Снежный покров - Высота снежного покрова, см. При наведении курсора мыши на число - состояние снежного покрова и степень покрытия местности в баллах.